�������l�o���
Date,Time,MP-1(��Sv/h),MP-2(��Sv/h),MP-3(��Sv/h),MP-4(��Sv/h),MP-5(��Sv/h),MP-6(��Sv/h),MP-7(��Sv/h),MP-8(��Sv/h),����,����(m/s),���J
2015/12/13,00:00,1.650,2.622,3.058,2.830,-,0.855,1.517,1.453,��,6.4,��
2015/12/13,00:10,1.650,2.622,3.058,2.830,-,0.858,1.518,1.453,��,6.8,��
2015/12/13,00:20,1.650,2.623,3.060,2.833,-,0.860,1.517,1.452,��,7.2,��
2015/12/13,00:30,1.648,2.622,3.058,2.835,-,0.858,1.517,1.452,��,7.1,��
2015/12/13,00:40,1.650,2.623,3.062,2.835,-,0.855,1.518,1.453,��,7.4,��
2015/12/13,00:50,1.650,2.623,3.058,2.835,-,0.855,1.517,1.453,��,6.9,��
2015/12/13,01:00,1.650,2.623,3.058,2.835,-,0.857,1.518,1.457,��,7.1,��
2015/12/13,01:10,1.648,2.622,3.060,2.835,-,0.857,1.518,1.453,��쐼,6.9,��
2015/12/13,01:20,1.650,2.622,3.062,2.835,-,0.855,1.518,1.455,��,7.1,��
2015/12/13,01:30,1.648,2.622,3.062,2.835,-,0.857,1.520,1.452,��쐼,6.7,��
2015/12/13,01:40,1.652,2.620,3.063,2.835,-,0.858,1.520,1.452,��쐼,6.2,��
2015/12/13,01:50,1.648,2.623,3.063,2.830,-,0.857,1.518,1.453,��쐼,5.3,��
2015/12/13,02:00,1.648,2.618,3.060,2.833,-,0.857,1.517,1.453,��쐼,5.4,��
2015/12/13,02:10,1.647,2.620,3.062,2.833,-,0.858,1.517,1.452,�쐼,5.1,��
2015/12/13,02:20,1.650,2.618,3.058,2.832,-,0.857,1.520,1.453,�쐼,5.4,��
2015/12/13,02:30,1.650,2.618,3.062,2.832,-,0.855,1.518,1.455,�쐼,5.6,��
2015/12/13,02:40,1.648,2.618,3.062,2.832,-,0.858,1.517,1.455,�쐼,7.0,��
2015/12/13,02:50,1.647,2.618,3.062,2.832,-,0.858,1.518,1.450,���쐼,4.1,��
2015/12/13,03:00,1.647,2.617,3.062,2.828,-,0.858,1.518,1.452,���쐼,3.1,��
2015/12/13,03:10,1.647,2.620,3.058,2.833,-,0.857,1.520,1.453,���쐼,1.7,��
2015/12/13,03:20,1.648,2.622,3.062,2.835,-,0.860,1.517,1.455,��,1.5,��
2015/12/13,03:30,1.650,2.622,3.060,2.835,-,0.858,1.518,1.450,-,CALM,��
2015/12/13,03:40,1.652,2.617,3.058,2.835,-,0.862,1.518,1.453,-,CALM,��
2015/12/13,03:50,1.648,2.618,3.060,2.832,-,0.860,1.517,1.453,��쓌,0.8,��
2015/12/13,04:00,1.650,2.617,3.062,2.832,-,0.857,1.518,1.455,�쐼,1.4,��
2015/12/13,04:10,1.647,2.615,3.060,2.833,-,0.858,1.518,1.453,��,1.7,��
2015/12/13,04:20,1.647,2.622,3.063,2.833,-,0.860,1.517,1.455,��쐼,2.3,��
2015/12/13,04:30,1.647,2.618,3.060,2.832,-,0.860,1.517,1.453,�쐼,3.3,��
2015/12/13,04:40,1.648,2.618,3.062,2.835,-,0.858,1.517,1.452,�쐼,3.5,��
2015/12/13,04:50,1.650,2.617,3.063,2.832,-,0.857,1.517,1.453,�쐼,3.4,��
2015/12/13,05:00,1.650,2.617,3.062,2.832,-,0.857,1.515,1.453,�쐼,3.0,��
2015/12/13,05:10,1.650,2.615,3.058,2.835,-,0.858,1.517,1.450,��,2.6,��
2015/12/13,05:20,1.650,2.617,3.060,2.830,-,0.857,1.518,1.452,���k��,2.0,��
2015/12/13,05:30,1.648,2.617,3.060,2.835,-,0.857,1.517,1.453,�k�k��,1.2,��
2015/12/13,05:40,1.652,2.618,3.060,2.833,-,0.862,1.515,1.452,�k�k��,1.4,��
2015/12/13,05:50,1.650,2.618,3.060,2.835,-,0.862,1.517,1.455,-,CALM,��
2015/12/13,06:00,1.650,2.618,3.058,2.835,-,0.857,1.517,1.452,��쓌,1.1,��
2015/12/13,06:10,1.650,2.615,3.058,2.837,-,0.858,1.517,1.453,��쓌,1.7,��
2015/12/13,06:20,1.648,2.620,3.062,2.832,-,0.858,1.517,1.453,��쓌,1.7,��
2015/12/13,06:30,1.647,2.617,3.060,2.833,-,0.860,1.515,1.453,��쓌,1.1,��
2015/12/13,06:40,1.647,2.618,3.057,2.828,-,0.858,1.517,1.453,-,CALM,��
2015/12/13,06:50,1.648,2.618,3.060,2.833,-,0.858,1.517,1.452,�쓌,0.6,��
2015/12/13,07:00,1.648,2.617,3.058,2.833,-,0.858,1.517,1.452,-,CALM,��
2015/12/13,07:10,1.647,2.617,3.057,2.832,-,0.860,1.517,1.452,���k��,0.8,��
2015/12/13,07:20,1.648,2.620,3.057,2.835,-,0.858,1.518,1.453,�k�k��,1.2,��
2015/12/13,07:30,1.647,2.622,3.062,2.835,-,0.857,1.515,1.453,�k��,2.6,��
2015/12/13,07:40,1.647,2.620,3.062,2.838,-,0.857,1.520,1.452,�k�k��,3.2,��
2015/12/13,07:50,1.647,2.622,3.058,2.840,-,0.858,1.520,1.453,�k��,3.1,��
2015/12/13,08:00,1.647,2.623,3.058,2.837,-,0.858,1.517,1.457,�k�k��,3.5,��
2015/12/13,08:10,1.650,2.623,3.062,2.838,-,0.858,1.518,1.455,�k�k��,3.6,��
2015/12/13,08:20,1.652,2.623,3.065,2.840,-,0.857,1.518,1.457,�k�k��,3.6,��
2015/12/13,08:30,1.648,2.623,3.062,2.843,-,0.858,1.522,1.453,�k�k��,3.7,��
2015/12/13,08:40,1.650,2.622,3.065,2.842,-,0.860,1.518,1.455,�k�k��,5.8,��
2015/12/13,08:50,1.648,2.622,3.068,2.843,-,0.862,1.522,1.458,�k,5.6,��
2015/12/13,09:00,1.650,2.625,3.068,2.843,-,0.860,1.520,1.455,�k,5.7,��
2015/12/13,09:10,1.650,2.630,3.070,2.842,-,0.857,1.522,1.455,�k,5.9,��
2015/12/13,09:20,1.648,2.625,3.068,2.840,-,0.857,1.522,1.457,�k,5.7,��
2015/12/13,09:30,1.648,2.627,3.072,2.842,-,0.862,1.520,1.458,�k�k��,4.7,��
2015/12/13,09:40,1.650,2.630,3.072,2.845,-,0.862,1.523,1.457,�k�k��,4.7,��
2015/12/13,09:50,1.648,2.628,3.073,2.843,-,0.863,1.523,1.457,�k�k��,4.7,��
2015/12/13,10:00,1.652,2.627,3.072,2.843,-,0.862,1.522,1.457,�k,4.2,��
2015/12/13,10:10,1.653,2.628,3.072,2.842,-,0.862,1.523,1.453,�k,3.6,��
2015/12/13,10:20,1.650,2.628,3.072,2.843,-,0.865,1.522,1.457,�k,3.9,��
2015/12/13,10:30,1.653,2.633,3.073,2.845,-,0.862,1.523,1.453,�k,3.6,��
2015/12/13,10:40,1.655,2.630,3.075,2.843,-,0.863,1.522,1.457,�k,3.6,��
2015/12/13,10:50,1.652,2.630,3.077,2.845,-,0.863,1.523,1.458,�k,3.0,��
2015/12/13,11:00,1.653,2.633,3.080,2.848,-,0.862,1.523,1.457,�k,2.8,��
2015/12/13,11:10,1.653,2.633,3.080,2.850,-,0.865,1.523,1.455,�k,3.2,��
2015/12/13,11:20,1.657,2.637,3.078,2.843,-,0.863,1.522,1.458,�k�k��,3.2,��
2015/12/13,11:30,1.653,2.635,3.077,2.845,-,0.863,1.523,1.457,�k,3.2,��
2015/12/13,11:40,1.652,2.633,3.078,2.847,-,0.865,1.525,1.458,�k,2.9,��
2015/12/13,11:50,1.653,2.635,3.078,2.850,-,0.863,1.525,1.455,�k,3.2,��
2015/12/13,12:00,1.650,2.633,3.078,2.852,-,0.862,1.523,1.460,�k,2.5,��
2015/12/13,12:10,1.657,2.635,3.082,2.850,-,0.862,1.525,1.458,�k�k��,2.8,��
2015/12/13,12:20,1.655,2.637,3.082,2.852,-,0.862,1.525,1.458,�k�k��,3.6,��
2015/12/13,12:30,1.653,2.633,3.082,2.850,-,0.865,1.527,1.457,�k,3.6,��
2015/12/13,12:40,1.652,2.633,3.083,2.850,-,0.865,1.525,1.455,�k,3.8,��
2015/12/13,12:50,1.655,2.635,3.083,2.848,-,0.863,1.522,1.457,�k,3.6,��
2015/12/13,13:00,1.658,2.635,3.087,2.848,-,0.865,1.525,1.457,�k,3.9,��
2015/12/13,13:10,1.653,2.635,3.082,2.850,-,0.865,1.525,1.458,�k,4.3,��
2015/12/13,13:20,1.655,2.633,3.083,2.848,-,0.865,1.525,1.460,�k�k��,4.8,��
2015/12/13,13:30,1.655,2.637,3.087,2.850,-,0.867,1.527,1.457,�k,4.1,��
2015/12/13,13:40,1.657,2.635,3.088,2.848,-,0.863,1.527,1.457,�k,5.3,��
2015/12/13,13:50,1.655,2.635,3.088,2.848,-,0.863,1.527,1.458,�k,5.1,��
2015/12/13,14:00,1.658,2.637,3.083,2.850,-,0.865,1.527,1.458,�k,5.0,��
2015/12/13,14:10,1.655,2.635,3.087,2.847,-,0.865,1.527,1.457,�k,5.4,��
2015/12/13,14:20,1.655,2.637,3.090,2.850,-,0.865,1.527,1.457,�k,3.8,��
2015/12/13,14:30,1.655,2.635,3.085,2.850,-,0.865,1.525,1.457,�k,3.7,��
2015/12/13,14:40,1.655,2.637,3.090,2.852,-,0.863,1.525,1.458,�k,4.5,��
2015/12/13,14:50,1.655,2.638,3.087,2.853,-,0.863,1.525,1.458,�k,4.8,��
2015/12/13,15:00,1.657,2.640,3.085,2.855,-,0.863,1.525,1.457,�k,4.8,��
2015/12/13,15:10,1.653,2.640,3.085,2.852,-,0.862,1.525,1.457,�k�k��,4.8,��
2015/12/13,15:20,1.655,2.640,3.080,2.848,-,0.862,1.525,1.458,�k�k��,4.8,��
2015/12/13,15:30,1.655,2.638,3.087,2.848,-,0.860,1.525,1.458,�k�k��,5.0,��
2015/12/13,15:40,1.653,2.637,3.090,2.850,-,0.865,1.523,1.457,�k�k��,4.6,��
2015/12/13,15:50,1.653,2.637,3.090,2.850,-,0.863,1.528,1.460,�k�k��,4.2,��
2015/12/13,16:00,1.657,2.640,3.087,2.853,-,0.863,1.527,1.457,�k�k��,5.2,��
2015/12/13,16:10,1.657,2.635,3.085,2.853,-,0.863,1.527,1.457,�k�k��,4.9,��
2015/12/13,16:20,1.657,2.638,3.087,2.853,-,0.865,1.527,1.458,�k�k��,5.0,��
2015/12/13,16:30,1.655,2.637,3.088,2.852,-,0.865,1.525,1.460,�k�k��,4.2,��
2015/12/13,16:40,1.655,2.637,3.093,2.855,-,0.865,1.528,1.457,�k�k��,5.8,��
2015/12/13,16:50,1.658,2.635,3.088,2.852,-,0.863,1.527,1.458,�k�k��,5.6,��
2015/12/13,17:00,1.663,2.633,3.087,2.848,-,0.862,1.525,1.457,�k�k��,5.9,��
2015/12/13,17:10,1.655,2.637,3.085,2.855,-,0.862,1.525,1.460,�k�k��,6.3,��
2015/12/13,17:20,1.658,2.638,3.088,2.852,-,0.862,1.525,1.457,�k�k��,6.0,��
2015/12/13,17:30,1.655,2.637,3.085,2.848,-,0.862,1.527,1.457,�k�k��,5.7,��
2015/12/13,17:40,1.653,2.637,3.088,2.850,-,0.862,1.525,1.457,�k�k��,6.2,��
2015/12/13,17:50,1.652,2.637,3.088,2.853,-,0.865,1.528,1.458,�k�k��,6.3,��
2015/12/13,18:00,1.652,2.638,3.087,2.853,-,0.863,1.527,1.457,�k�k��,6.8,��
2015/12/13,18:10,1.657,2.640,3.092,2.850,-,0.865,1.528,1.452,�k�k��,6.7,��
2015/12/13,18:20,1.653,2.638,3.087,2.853,-,0.862,1.525,1.457,�k�k��,6.3,�L
2015/12/13,18:30,1.655,2.638,3.087,2.857,-,0.863,1.527,1.458,�k�k��,6.2,��
2015/12/13,18:40,1.655,2.638,3.087,2.852,-,0.863,1.528,1.457,�k�k��,6.6,��
2015/12/13,18:50,1.655,2.638,3.088,2.852,-,0.863,1.528,1.453,�k�k��,7.1,��
2015/12/13,19:00,1.657,2.638,3.087,2.852,-,0.863,1.525,1.458,�k�k��,5.9,��
2015/12/13,19:10,1.653,2.640,3.083,2.852,-,0.863,1.527,1.458,�k�k��,5.1,��
2015/12/13,19:20,1.658,2.637,3.085,2.853,-,0.860,1.527,1.457,�k�k��,5.8,��
2015/12/13,19:30,1.655,2.638,3.085,2.853,-,0.862,1.525,1.455,�k�k��,5.8,��
2015/12/13,19:40,1.655,2.635,3.090,2.850,-,0.860,1.527,1.457,�k�k��,6.5,��
2015/12/13,19:50,1.650,2.638,3.085,2.852,-,0.863,1.525,1.458,�k�k��,6.2,��
2015/12/13,20:00,1.650,2.640,3.080,2.855,-,0.862,1.527,1.457,�k�k��,6.3,��
2015/12/13,20:10,1.655,2.633,3.083,2.855,-,0.863,1.527,1.457,�k�k��,6.4,��
2015/12/13,20:20,1.657,2.638,3.088,2.857,-,0.862,1.528,1.458,�k�k��,7.0,��
2015/12/13,20:30,1.655,2.637,3.090,2.853,-,0.863,1.528,1.455,�k�k��,5.8,��
2015/12/13,20:40,1.657,2.640,3.090,2.850,-,0.862,1.527,1.457,�k�k��,6.9,��
2015/12/13,20:50,1.655,2.635,3.088,2.852,-,0.865,1.525,1.455,�k�k��,7.2,��
2015/12/13,21:00,1.653,2.635,3.083,2.855,-,0.865,1.530,1.457,�k�k��,7.2,�L
2015/12/13,21:10,1.657,2.640,3.090,2.852,-,0.865,1.527,1.460,�k�k��,6.6,�L
2015/12/13,21:20,1.657,2.638,3.088,2.853,-,0.863,1.527,1.455,�k�k��,7.1,��
2015/12/13,21:30,1.658,2.635,3.087,2.850,-,0.865,1.525,1.458,�k�k��,7.5,��
2015/12/13,21:40,1.657,2.635,3.092,2.853,-,0.860,1.525,1.455,�k�k��,7.4,��
2015/12/13,21:50,1.657,2.638,3.088,2.852,-,0.863,1.527,1.455,�k�k��,7.4,��
2015/12/13,22:00,1.657,2.640,3.087,2.852,-,0.862,1.528,1.455,�k��,7.5,��
2015/12/13,22:10,1.657,2.640,3.085,2.850,-,0.862,1.528,1.453,�k�k��,6.6,��
2015/12/13,22:20,1.657,2.642,3.087,2.853,-,0.865,1.525,1.455,�k�k��,7.7,��
2015/12/13,22:30,1.655,2.638,3.088,2.858,-,0.867,1.527,1.458,�k�k��,6.3,��
2015/12/13,22:40,1.657,2.638,3.088,2.855,-,0.865,1.528,1.460,�k�k��,5.6,��
2015/12/13,22:50,1.653,2.642,3.085,2.855,-,0.863,1.527,1.455,�k��,5.6,��
2015/12/13,23:00,1.657,2.638,3.090,2.855,-,0.862,1.527,1.457,�k�k��,6.0,��
2015/12/13,23:10,1.655,2.633,3.088,2.855,-,0.862,1.527,1.458,�k�k��,5.8,��
2015/12/13,23:20,1.657,2.635,3.087,2.850,-,0.865,1.525,1.455,�k��,5.5,��
2015/12/13,23:30,1.657,2.637,3.085,2.847,-,0.865,1.527,1.453,�k��,5.7,��
2015/12/13,23:40,1.657,2.637,3.085,2.848,-,0.862,1.527,1.458,�k��,6.0,��
2015/12/13,23:50,1.657,2.637,3.083,2.852,-,0.863,1.525,1.457,�k�k��,6.7,��
